GSAT0217 (GALILEO 21) (43057 NORAD) Tracking and Keplerian Element Data

This shows tracking and keplerian element data for the satellite.

Feedback or suggestion? Click here.




ElementValue
Catalog43057
NameGSAT0217 (GALILEO 21)
Epoch Orbit1099
Epoch Day261.87497207
Epoch Year2019
RAAN289.2712
Inclination56.485
Eccentricity0.0005233
Argument of Perigee260.8849
Mean Anonmoly99.1078
Mean Motion1.70474199
Decay Rate1.6E-07
L11 43057U 17079C 19261.87497207 .00000016 00000-0 00000+0 0 9992
L22 43057 56.4850 289.2712 0005233 260.8849 99.1078 1.70474199 10995

Live tracking and technical data element details for GSAT0217 (GALILEO 21) (NORAD 43057). GSAT0217 (GALILEO 21) can be tracked NOW for your location showing map with azimuth and elevation plus other details from your city location.

Track the satellite on the map from your city or location and see movement details for azimuth, elevation, latitude, longitude, range, height, and movement on the map or in text.







IsCatalogInMostPopularTable: catalog: 43057, numindb: 314
Update: records affected: 1



GetName: 43057 GSAT0217 (GALILEO 21)

Hit Count: updated at: Thu, 19 Sep 2019 17:13:15 GMT